| time (UTC) | temp F | wind direction | speed MPH | gust MPH | rain 1hr in | rain 24hr in | rain mn in | humidity % | barometer mb |
| 20260508082436 | 57 | 103 | 8.0 | 13.0 | 0.00 | 0.00 | 0.01 | 29 | 1021.0 |
| 20260508081931 | 57 | 63 | 6.0 | 15.0 | 0.00 | 0.00 | 0.01 | 30 | 1021.2 |
| 20260508081425 | 57 | 90 | 11.0 | 11.0 | 0.00 | 0.00 | 0.01 | 31 | 1021.1 |
| 20260508080920 | 57 | 67 | 1.0 | 6.0 | 0.00 | 0.00 | 0.01 | 31 | 1021.1 |
| 20260508080415 | 57 | 90 | 9.0 | 11.0 | 0.00 | 0.00 | 0.01 | 32 | 1021.1 |
| 20260508075910 | 56 | 117 | 4.0 | 16.0 | 0.00 | 0.00 | 0.01 | 34 | 1021.2 |
| 20260508075405 | 56 | 135 | 2.0 | 7.0 | 0.00 | 0.00 | 0.01 | 37 | 1021.1 |
| 20260508074859 | 55 | 72 | 2.0 | 9.0 | 0.00 | 0.00 | 0.01 | 36 | 1021.1 |
| 20260508074354 | 54 | 81 | 5.0 | 14.0 | 0.00 | 0.00 | 0.01 | 36 | 1021.0 |
| 20260508073849 | 53 | 58 | 8.0 | 9.0 | 0.00 | 0.00 | 0.01 | 38 | 1021.1 |
| 20260508073344 | 53 | 85 | 6.0 | 11.0 | 0.00 | 0.00 | 0.01 | 37 | 1021.0 |
| 20260508072839 | 52 | 94 | 6.0 | 11.0 | 0.00 | 0.00 | 0.01 | 38 | 1021.0 |
| 20260508072333 | 52 | 90 | 7.0 | 12.0 | 0.00 | 0.00 | 0.01 | 37 | 1020.9 |
| 20260508071828 | 52 | 90 | 9.0 | 9.0 | 0.00 | 0.00 | 0.01 | 39 | 1021.0 |
| 20260508071323 | 52 | 108 | 4.0 | 8.0 | 0.00 | 0.00 | 0.01 | 39 | 1020.9 |
| 20260508070818 | 51 | 135 | 8.0 | 11.0 | 0.00 | 0.00 | 0.01 | 39 | 1020.9 |
| 20260508070313 | 52 | 90 | 5.0 | 9.0 | 0.00 | 0.00 | 0.01 | 38 | 1020.8 |
| 20260508065807 | 52 | 90 | 11.0 | 11.0 | 0.00 | 0.00 | 0.01 | 39 | 1020.8 |
| 20260508065306 | 53 | 90 | 5.0 | 9.0 | 0.00 | 0.00 | 0.01 | 40 | 1020.8 |
| 20260508064757 | 53 | 85 | 5.0 | 10.0 | 0.00 | 0.00 | 0.01 | 41 | 1020.7 |
| 20260508064252 | 52 | 49 | 2.0 | 4.0 | 0.00 | 0.00 | 0.01 | 43 | 1020.6 |
| 20260508063747 | 51 | 117 | 4.0 | 5.0 | 0.00 | 0.00 | 0.01 | 43 | 1020.6 |
| 20260508063241 | 51 | 112 | 9.0 | 9.0 | 0.00 | 0.00 | 0.01 | 44 | 1020.5 |
| 20260508062736 | 51 | 90 | 5.0 | 10.0 | 0.00 | 0.00 | 0.01 | 43 | 1020.6 |
| 20260508062231 | 51 | 112 | 4.0 | 5.0 | 0.00 | 0.00 | 0.01 | 45 | 1020.5 |
| 20260508061726 | 51 | 135 | 2.0 | 7.0 | 0.00 | 0.00 | 0.01 | 45 | 1020.4 |
| 20260508061221 | 51 | 85 | 1.0 | 7.0 | 0.00 | 0.00 | 0.01 | 46 | 1020.4 |
| 20260508060715 | 51 | 0 | 1.0 | 3.0 | 0.00 | 0.00 | 0.01 | 47 | 1020.4 |
| 20260508060210 | 50 | 90 | 1.0 | 5.0 | 0.00 | 0.00 | 0.01 | 49 | 1020.4 |
| 20260508055705 | 50 | 90 | 0.0 | 2.0 | 0.00 | 0.00 | 0.01 | 51 | 1020.4 |
| 20260508055200 | 49 | 90 | 1.0 | 2.0 | 0.00 | 0.00 | 0.01 | 51 | 1020.4 |
| 20260508054655 | 48 | 9 | 0.0 | 2.0 | 0.00 | 0.00 | 0.01 | 51 | 1020.4 |
| 20260508054149 | 47 | 0 | 2.0 | 3.0 | 0.00 | 0.00 | 0.01 | 53 | 1020.3 |
| 20260508053644 | 46 | 0 | 3.0 | 3.0 | 0.00 | 0.00 | 0.01 | 55 | 1020.2 |
| 20260508053139 | 46 | 0 | 2.0 | 3.0 | 0.00 | 0.00 | 0.01 | 56 | 1020.2 |
| 20260508052634 | 45 | 0 | 2.0 | 3.0 | 0.00 | 0.00 | 0.01 | 59 | 1020.1 |
| 20260508052129 | 44 | 0 | 2.0 | 2.0 | 0.00 | 0.00 | 0.01 | 61 | 1020.1 |
| 20260508051623 | 43 | 45 | 1.0 | 2.0 | 0.00 | 0.00 | 0.01 | 63 | 1020.1 |
| 20260508051118 | 41 | 45 | 1.0 | 1.0 | 0.00 | 0.00 | 0.01 | 65 | 1020.1 |
| 20260508050613 | 40 | 45 | 1.0 | 3.0 | 0.00 | 0.00 | 0.01 | 67 | 1020.1 |
| 20260508050108 | 38 | 0 | 1.0 | 4.0 | 0.00 | 0.00 | 0.01 | 68 | 1019.9 |
| 20260508045603 | 37 | 0 | 2.0 | 4.0 | 0.00 | 0.00 | 0.01 | 70 | 1019.8 |
| 20260508045057 | 35 | 45 | 2.0 | 3.0 | 0.00 | 0.00 | 0.01 | 72 | 1019.8 |
| 20260508044552 | 33 | 0 | 3.0 | 4.0 | 0.00 | 0.00 | 0.01 | 71 | 1019.7 |
| 20260508044047 | 31 | 0 | 2.0 | 5.0 | 0.00 | 0.00 | 0.01 | 71 | 1019.7 |
| 20260508043542 | 30 | 0 | 2.0 | 3.0 | 0.00 | 0.00 | 0.01 | 70 | 1019.6 |
| 20260508043037 | 30 | 27 | 2.0 | 2.0 | 0.00 | 0.00 | 0.01 | 70 | 1019.6 |
| 20260508042531 | 30 | 45 | 0.0 | 0.0 | 0.00 | 0.00 | 0.01 | 69 | 1019.7 |
| 20260508042026 | 30 | 45 | 0.0 | 4.0 | 0.00 | 0.00 | 0.01 | 70 | 1019.6 |
| 20260508041521 | 29 | 45 | 0.0 | 2.0 | 0.00 | 0.00 | 0.01 | 70 | 1019.7 |
| 20260508041016 | 29 | 22 | 1.0 | 2.0 | 0.00 | 0.00 | 0.01 | 69 | 1019.6 |
| 20260508040511 | 29 | 45 | 1.0 | 2.0 | 0.00 | 0.00 | 0.01 | 69 | 1019.5 |
| 20260508040005 | 28 | 0 | 1.0 | 2.0 | 0.00 | 0.00 | 0.01 | 69 | 1019.5 |
| 20260508035500 | 28 | 45 | 1.0 | 2.0 | 0.00 | 0.00 | 0.01 | 68 | 1019.5 |
| 20260508034955 | 28 | 0 | 1.0 | 1.0 | 0.00 | 0.00 | 0.01 | 67 | 1019.5 |
| 20260508034450 | 28 | 45 | 0.0 | 2.0 | 0.00 | 0.00 | 0.01 | 67 | 1019.5 |
| 20260508033945 | 27 | 45 | 2.0 | 2.0 | 0.00 | 0.00 | 0.01 | 67 | 1019.4 |
| 20260508033439 | 28 | 0 | 1.0 | 2.0 | 0.00 | 0.00 | 0.01 | 67 | 1019.5 |
| 20260508032934 | 28 | 0 | 1.0 | 3.0 | 0.00 | 0.00 | 0.01 | 66 | 1019.4 |
| 20260508032429 | 28 | 0 | 0.0 | 0.0 | 0.00 | 0.00 | 0.01 | 66 | 1019.3 |
| 20260508031924 | 28 | 0 | 0.0 | 0.0 | 0.00 | 0.00 | 0.01 | 66 | 1019.2 |
| 20260508031419 | 28 | 0 | 1.0 | 1.0 | 0.00 | 0.00 | 0.01 | 66 | 1019.3 |
| 20260508030913 | 28 | 90 | 0.0 | 1.0 | 0.00 | 0.00 | 0.01 | 65 | 1019.3 |
| 20260508030408 | 28 | 45 | 1.0 | 2.0 | 0.00 | 0.00 | 0.01 | 65 | 1019.2 |
| 20260508025903 | 28 | 45 | 1.0 | 2.0 | 0.00 | 0.00 | 0.01 | 65 | 1019.2 |
| 20260508025357 | 28 | 45 | 1.0 | 2.0 | 0.00 | 0.00 | 0.01 | 64 | 1019.0 |
| 20260508024853 | 28 | 45 | 0.0 | 1.0 | 0.00 | 0.00 | 0.01 | 64 | 1019.0 |
| 20260508024347 | 29 | 0 | 2.0 | 2.0 | 0.00 | 0.00 | 0.01 | 64 | 1019.1 |
| 20260508023842 | 29 | 45 | 0.0 | 3.0 | 0.00 | 0.00 | 0.01 | 64 | 1019.0 |
| 20260508023337 | 29 | 0 | 3.0 | 4.0 | 0.00 | 0.00 | 0.01 | 64 | 1018.9 |
| 20260508022831 | 29 | 0 | 3.0 | 4.0 | 0.00 | 0.00 | 0.01 | 64 | 1018.9 |
| 20260508022327 | 29 | 0 | 3.0 | 4.0 | 0.00 | 0.00 | 0.01 | 64 | 1018.7 |
| 20260508021821 | 29 | 0 | 3.0 | 3.0 | 0.00 | 0.00 | 0.01 | 63 | 1018.9 |
| 20260508021316 | 29 | 0 | 1.0 | 2.0 | 0.00 | 0.00 | 0.01 | 63 | 1018.8 |
| 20260508020811 | 29 | 45 | 1.0 | 3.0 | 0.00 | 0.00 | 0.01 | 62 | 1018.8 |
| 20260508020305 | 29 | 45 | 1.0 | 1.0 | 0.00 | 0.00 | 0.00 | 63 | 1018.8 |
| 20260508015255 | 29 | 0 | 3.0 | 3.0 | 0.00 | 0.00 | 0.00 | 62 | 1018.9 |
| 20260508014750 | 30 | 0 | 1.0 | 2.0 | 0.00 | 0.00 | 0.00 | 62 | 1018.7 |
| 20260508014245 | 30 | 45 | 1.0 | 1.0 | 0.00 | 0.00 | 0.00 | 61 | 1018.8 |
| 20260508013739 | 30 | 45 | 1.0 | 2.0 | 0.00 | 0.00 | 0.00 | 61 | 1018.7 |
| 20260508012724 | 30 | 0 | 2.0 | 3.0 | 0.00 | 0.00 | 0.00 | 60 | 1018.6 |
| 20260508012219 | 31 | 0 | 3.0 | 4.0 | 0.00 | 0.00 | 0.00 | 61 | 1018.7 |
| 20260508011714 | 31 | 0 | 3.0 | 3.0 | 0.00 | 0.00 | 0.00 | 61 | 1018.7 |
| 20260508011208 | 31 | 0 | 1.0 | 2.0 | 0.00 | 0.00 | 0.00 | 60 | 1018.6 |
| 20260508010704 | 30 | 45 | 1.0 | 2.0 | 0.00 | 0.00 | 0.00 | 59 | 1018.6 |
| 20260508010158 | 30 | 18 | 1.0 | 3.0 | 0.00 | 0.00 | 0.00 | 58 | 1018.6 |
| 20260508005653 | 30 | 45 | 1.0 | 3.0 | 0.00 | 0.00 | 0.00 | 58 | 1018.6 |
| 20260508005148 | 31 | 0 | 2.0 | 3.0 | 0.00 | 0.00 | 0.00 | 57 | 1018.6 |
| 20260508004642 | 31 | 0 | 1.0 | 2.0 | 0.00 | 0.00 | 0.00 | 57 | 1018.6 |
| 20260508004138 | 31 | 0 | 1.0 | 3.0 | 0.00 | 0.00 | 0.00 | 57 | 1018.6 |
| 20260508003632 | 31 | 0 | 2.0 | 2.0 | 0.00 | 0.00 | 0.00 | 56 | 1018.5 |
| 20260508003127 | 32 | 45 | 0.0 | 2.0 | 0.00 | 0.00 | 0.00 | 56 | 1018.4 |
| 20260508002622 | 32 | 0 | 2.0 | 4.0 | 0.00 | 0.00 | 0.00 | 56 | 1018.4 |
| 20260508002116 | 32 | 0 | 3.0 | 3.0 | 0.00 | 0.00 | 0.00 | 56 | 1018.4 |
| 20260508001612 | 33 | 0 | 1.0 | 2.0 | 0.00 | 0.00 | 0.00 | 56 | 1018.4 |
| 20260508001106 | 33 | 13 | 1.0 | 3.0 | 0.00 | 0.00 | 0.00 | 55 | 1018.4 |
| 20260508000056 | 33 | 0 | 3.0 | 3.0 | 0.00 | 0.00 | 0.00 | 55 | 1018.3 |
| 20260507235550 | 33 | 0 | 2.0 | 4.0 | 0.00 | 0.00 | 0.00 | 55 | 1018.2 |
| 20260507235046 | 33 | 45 | 1.0 | 1.0 | 0.00 | 0.00 | 0.00 | 54 | 1018.2 |
| 20260507234540 | 33 | 45 | 1.0 | 1.0 | 0.00 | 0.00 | 0.00 | 53 | 1018.1 |
| 20260507234035 | 33 | 0 | 2.0 | 3.0 | 0.00 | 0.00 | 0.00 | 54 | 1018.2 |
| 20260507233530 | 34 | 0 | 1.0 | 2.0 | 0.00 | 0.00 | 0.00 | 53 | 1018.1 |
| 20260507233024 | 34 | 45 | 1.0 | 3.0 | 0.00 | 0.00 | 0.00 | 53 | 1018.2 |
| 20260507232520 | 34 | 45 | 1.0 | 2.0 | 0.00 | 0.00 | 0.00 | 54 | 1018.1 |
| 20260507232014 | 34 | 45 | 2.0 | 2.0 | 0.00 | 0.00 | 0.00 | 53 | 1018.1 |
| 20260507231509 | 34 | 0 | 1.0 | 2.0 | 0.00 | 0.00 | 0.00 | 53 | 1018.1 |
| 20260507231004 | 34 | 45 | 1.0 | 2.0 | 0.00 | 0.00 | 0.00 | 52 | 1018.1 |
| 20260507230458 | 34 | 0 | 2.0 | 3.0 | 0.00 | 0.00 | 0.00 | 52 | 1018.0 |
| 20260507225954 | 34 | 0 | 3.0 | 3.0 | 0.00 | 0.00 | 0.00 | 51 | 1018.0 |
| 20260507225448 | 34 | 0 | 2.0 | 2.0 | 0.00 | 0.00 | 0.00 | 51 | 1017.9 |
| 20260507224943 | 34 | 45 | 1.0 | 2.0 | 0.00 | 0.00 | 0.00 | 51 | 1018.0 |
| 20260507224438 | 34 | 45 | 1.0 | 2.0 | 0.00 | 0.00 | 0.00 | 51 | 1018.0 |
| 20260507223932 | 34 | 45 | 1.0 | 1.0 | 0.00 | 0.00 | 0.00 | 51 | 1017.9 |
| 20260507223428 | 34 | 45 | 1.0 | 2.0 | 0.00 | 0.00 | 0.00 | 51 | 1017.9 |
| 20260507222922 | 34 | 45 | 1.0 | 1.0 | 0.00 | 0.00 | 0.00 | 51 | 1017.9 |
| 20260507222417 | 34 | 0 | 2.0 | 2.0 | 0.00 | 0.00 | 0.00 | 51 | 1017.9 |
| 20260507221912 | 34 | 45 | 1.0 | 2.0 | 0.00 | 0.00 | 0.00 | 49 | 1017.9 |
| 20260507221406 | 34 | 45 | 0.0 | 0.0 | 0.00 | 0.00 | 0.00 | 49 | 1017.9 |
| 20260507220902 | 34 | 45 | 0.0 | 0.0 | 0.00 | 0.00 | 0.00 | 49 | 1017.8 |
| 20260507220356 | 34 | 45 | 0.0 | 0.0 | 0.00 | 0.00 | 0.00 | 48 | 1017.8 |
| 20260507215851 | 35 | 45 | 0.0 | 0.0 | 0.00 | 0.00 | 0.00 | 47 | 1017.8 |
| 20260507215346 | 35 | 45 | 0.0 | 0.0 | 0.00 | 0.00 | 0.00 | 47 | 1017.8 |
| 20260507214840 | 35 | 45 | 1.0 | 1.0 | 0.00 | 0.00 | 0.00 | 47 | 1017.7 |
| 20260507214336 | 35 | 45 | 0.0 | 1.0 | 0.00 | 0.00 | 0.00 | 45 | 1017.7 |
| 20260507213830 | 36 | 45 | 0.0 | 0.0 | 0.00 | 0.00 | 0.00 | 45 | 1017.7 |
| 20260507213325 | 36 | 90 | 0.0 | 0.0 | 0.00 | 0.00 | 0.00 | 44 | 1017.6 |
| 20260507212820 | 36 | 90 | 0.0 | 0.0 | 0.00 | 0.00 | 0.00 | 44 | 1017.6 |
| 20260507212314 | 37 | 90 | 0.0 | 0.0 | 0.00 | 0.00 | 0.00 | 44 | 1017.5 |
| 20260507211810 | 37 | 90 | 0.0 | 0.0 | 0.00 | 0.00 | 0.00 | 44 | 1017.5 |
| 20260507211304 | 37 | 90 | 0.0 | 0.0 | 0.00 | 0.00 | 0.00 | 42 | 1017.4 |
| 20260507210759 | 37 | 90 | 0.0 | 0.0 | 0.00 | 0.00 | 0.00 | 41 | 1017.4 |
| 20260507210254 | 37 | 45 | 0.0 | 0.0 | 0.00 | 0.00 | 0.00 | 40 | 1017.3 |
| 20260507205748 | 38 | 45 | 0.0 | 0.0 | 0.00 | 0.00 | 0.00 | 39 | 1017.3 |
| 20260507205244 | 38 | 0 | 0.0 | 0.0 | 0.00 | 0.00 | 0.00 | 38 | 1017.3 |
| 20260507204738 | 38 | 0 | 1.0 | 1.0 | 0.00 | 0.00 | 0.00 | 39 | 1017.2 |
| 20260507204233 | 39 | 85 | 0.0 | 0.0 | 0.00 | 0.00 | 0.00 | 38 | 1017.2 |
| 20260507203728 | 39 | 90 | 0.0 | 0.0 | 0.00 | 0.00 | 0.00 | 37 | 1017.1 |
| 20260507203222 | 39 | 90 | 0.0 | 0.0 | 0.00 | 0.00 | 0.00 | 37 | 1017.2 |
| 20260507202718 | 39 | 45 | 0.0 | 0.0 | 0.00 | 0.00 | 0.00 | 37 | 1017.1 |
| 20260507202212 | 39 | 45 | 0.0 | 0.0 | 0.00 | 0.00 | 0.00 | 36 | 1017.1 |
| 20260507201707 | 40 | 45 | 0.0 | 0.0 | 0.00 | 0.00 | 0.00 | 35 | 1017.1 |
| 20260507201202 | 40 | 90 | 0.0 | 0.0 | 0.00 | 0.00 | 0.00 | 34 | 1017.1 |
| 20260507200656 | 40 | 0 | 0.0 | 2.0 | 0.00 | 0.00 | 0.00 | 34 | 1017.0 |
| 20260507200152 | 41 | 0 | 0.0 | 2.0 | 0.00 | 0.00 | 0.00 | 34 | 1016.9 |
| 20260507195646 | 41 | 31 | 1.0 | 3.0 | 0.00 | 0.00 | 0.00 | 34 | 1016.8 |
| 20260507194635 | 41 | 45 | 1.0 | 1.0 | 0.00 | 0.00 | 0.00 | 33 | 1016.8 |
| 20260507194130 | 42 | 36 | 1.0 | 2.0 | 0.00 | 0.00 | 0.00 | 31 | 1016.8 |
| 20260507193626 | 42 | 0 | 1.0 | 2.0 | 0.00 | 0.00 | 0.00 | 31 | 1016.7 |
| 20260507193120 | 43 | 45 | 1.0 | 3.0 | 0.00 | 0.00 | 0.00 | 30 | 1016.6 |
| 20260507192615 | 43 | 18 | 1.0 | 3.0 | 0.00 | 0.00 | 0.00 | 29 | 1016.6 |
| 20260507192110 | 44 | 90 | 1.0 | 3.0 | 0.00 | 0.00 | 0.00 | 29 | 1016.4 |
| 20260507191604 | 44 | 0 | 1.0 | 3.0 | 0.00 | 0.00 | 0.00 | 27 | 1016.5 |
| 20260507191100 | 45 | 351 | 1.0 | 2.0 | 0.00 | 0.00 | 0.18 | 27 | 1016.4 |
| 20260507190554 | 45 | 45 | 1.0 | 3.0 | 0.00 | 0.00 | 0.18 | 26 | 1016.3 |
| 20260507190049 | 46 | 0 | 2.0 | 3.0 | 0.00 | 0.00 | 0.18 | 25 | 1016.3 |
| 20260507185544 | 47 | 45 | 1.0 | 4.0 | 0.00 | 0.00 | 0.18 | 24 | 1016.2 |
| 20260507185038 | 47 | 0 | 1.0 | 7.0 | 0.00 | 0.00 | 0.18 | 24 | 1016.2 |
| 20260507184534 | 47 | 45 | 0.0 | 5.0 | 0.00 | 0.00 | 0.18 | 23 | 1016.0 |
| 20260507184028 | 48 | 18 | 1.0 | 3.0 | 0.00 | 0.00 | 0.18 | 22 | 1016.1 |
| 20260507183523 | 48 | 342 | 1.0 | 2.0 | 0.00 | 0.00 | 0.18 | 21 | 1016.1 |
| 20260507183018 | 49 | 324 | 2.0 | 4.0 | 0.00 | 0.00 | 0.18 | 20 | 1016.1 |
| 20260507182512 | 49 | 4 | 1.0 | 2.0 | 0.00 | 0.00 | 0.18 | 20 | 1016.0 |
| 20260507182008 | 50 | 355 | 2.0 | 4.0 | 0.00 | 0.00 | 0.18 | 18 | 1016.0 |
| 20260507181502 | 50 | 337 | 3.0 | 4.0 | 0.00 | 0.00 | 0.18 | 17 | 1015.8 |
| 20260507180957 | 50 | 0 | 3.0 | 7.0 | 0.00 | 0.00 | 0.18 | 17 | 1015.9 |
| 20260507180452 | 51 | 351 | 4.0 | 6.0 | 0.00 | 0.00 | 0.18 | 16 | 1015.9 |
| 20260507175946 | 51 | 31 | 0.0 | 2.0 | 0.00 | 0.00 | 0.18 | 15 | 1015.8 |
| 20260507175442 | 52 | 9 | 3.0 | 4.0 | 0.00 | 0.00 | 0.18 | 14 | 1015.7 |
| 20260507174936 | 53 | 18 | 1.0 | 5.0 | 0.00 | 0.00 | 0.18 | 13 | 1015.8 |
| 20260507174431 | 54 | 342 | 3.0 | 7.0 | 0.00 | 0.00 | 0.18 | 13 | 1015.7 |
| 20260507173926 | 54 | 45 | 0.0 | 7.0 | 0.00 | 0.00 | 0.18 | 13 | 1015.7 |
| 20260507173420 | 55 | 342 | 2.0 | 6.0 | 0.00 | 0.00 | 0.18 | 10 | 1015.8 |
| 20260507172916 | 56 | 328 | 5.0 | 10.0 | 0.00 | 0.00 | 0.18 | 10 | 1015.7 |
| 20260507172410 | 56 | 45 | 0.0 | 7.0 | 0.00 | 0.00 | 0.18 | 10 | 1015.6 |
| 20260507171905 | 56 | 342 | 2.0 | 5.0 | 0.00 | 0.00 | 0.18 | 9 | 1015.7 |
| 20260507171400 | 56 | 355 | 7.0 | 7.0 | 0.00 | 0.00 | 0.18 | 8 | 1015.6 |
| 20260507170854 | 56 | 0 | 1.0 | 8.0 | 0.00 | 0.00 | 0.18 | 8 | 1015.5 |
| 20260507170350 | 57 | 292 | 7.0 | 7.0 | 0.00 | 0.00 | 0.18 | 7 | 1015.5 |
| 20260507165844 | 57 | 315 | 2.0 | 9.0 | 0.00 | 0.00 | 0.18 | 6 | 1015.6 |
| 20260507165339 | 58 | 333 | 4.0 | 7.0 | 0.00 | 0.00 | 0.18 | 10 | 1015.5 |
| 20260507164834 | 58 | 337 | 2.0 | 10.0 | 0.00 | 0.00 | 0.18 | 13 | 1015.4 |
| 20260507164328 | 58 | 342 | 6.0 | 6.0 | 0.00 | 0.00 | 0.18 | 12 | 1015.4 |
| 20260507163824 | 57 | 0 | 2.0 | 6.0 | 0.00 | 0.00 | 0.18 | 12 | 1015.5 |
| 20260507163318 | 57 | 351 | 2.0 | 8.0 | 0.00 | 0.00 | 0.18 | 13 | 1015.4 |
| 20260507162813 | 57 | 310 | 2.0 | 8.0 | 0.00 | 0.00 | 0.18 | 12 | 1015.4 |
| 20260507162308 | 57 | 301 | 4.0 | 12.0 | 0.00 | 0.00 | 0.18 | 12 | 1015.4 |
| 20260507161802 | 57 | 306 | 5.0 | 10.0 | 0.00 | 0.00 | 0.18 | 12 | 1015.3 |
| 20260507161258 | 57 | 342 | 7.0 | 10.0 | 0.00 | 0.00 | 0.18 | 10 | 1015.3 |
| 20260507160752 | 57 | 310 | 5.0 | 9.0 | 0.00 | 0.00 | 0.18 | 12 | 1015.4 |
| 20260507160247 | 57 | 306 | 6.0 | 9.0 | 0.00 | 0.00 | 0.17 | 12 | 1015.4 |
| 20260507155742 | 57 | 9 | 4.0 | 9.0 | 0.00 | 0.00 | 0.17 | 14 | 1015.4 |
| 20260507155236 | 57 | 315 | 4.0 | 12.0 | 0.00 | 0.00 | 0.17 | 12 | 1015.4 |
| 20260507154732 | 57 | 274 | 4.0 | 10.0 | 0.00 | 0.00 | 0.17 | 12 | 1015.4 |
| 20260507154226 | 57 | 306 | 4.0 | 8.0 | 0.00 | 0.00 | 0.17 | 15 | 1015.4 |
| 20260507153721 | 57 | 67 | 3.0 | 16.0 | 0.00 | 0.00 | 0.17 | 15 | 1015.4 |
| 20260507153216 | 57 | 306 | 6.0 | 14.0 | 0.00 | 0.00 | 0.17 | 15 | 1015.3 |
| 20260507152710 | 57 | 288 | 9.0 | 12.0 | 0.00 | 0.00 | 0.17 | 14 | 1015.2 |
| 20260507152206 | 58 | 297 | 7.0 | 14.0 | 0.00 | 0.00 | 0.17 | 12 | 1015.2 |
| 20260507151700 | 58 | 252 | 9.0 | 13.0 | 0.00 | 0.00 | 0.17 | 12 | 1015.1 |
| 20260507151155 | 59 | 274 | 8.0 | 14.0 | 0.00 | 0.00 | 0.17 | 13 | 1015.3 |
| 20260507150650 | 59 | 270 | 10.0 | 13.0 | 0.00 | 0.00 | 0.17 | 12 | 1015.2 |
| 20260507150144 | 59 | 270 | 6.0 | 13.0 | 0.00 | 0.00 | 0.17 | 12 | 1015.2 |
| 20260507145640 | 59 | 306 | 3.0 | 11.0 | 0.00 | 0.00 | 0.17 | 12 | 1015.2 |
| 20260507145134 | 58 | 324 | 3.0 | 11.0 | 0.00 | 0.00 | 0.17 | 15 | 1015.2 |
| 20260507144629 | 58 | 297 | 8.0 | 10.0 | 0.00 | 0.00 | 0.17 | 13 | 1015.2 |
| 20260507144124 | 58 | 247 | 6.0 | 16.0 | 0.00 | 0.00 | 0.17 | 12 | 1015.0 |
| 20260507143618 | 58 | 270 | 5.0 | 16.0 | 0.00 | 0.00 | 0.17 | 12 | 1015.1 |
| 20260507143114 | 58 | 252 | 10.0 | 14.0 | 0.00 | 0.00 | 0.17 | 13 | 1015.1 |
| 20260507142608 | 58 | 261 | 8.0 | 16.0 | 0.00 | 0.00 | 0.17 | 15 | 1015.2 |
| 20260507142103 | 59 | 279 | 6.0 | 13.0 | 0.00 | 0.00 | 0.17 | 10 | 1015.2 |
| 20260507141558 | 59 | 283 | 4.0 | 11.0 | 0.00 | 0.00 | 0.13 | 13 | 1015.2 |
| 20260507141053 | 58 | 324 | 7.0 | 14.0 | 0.00 | 0.00 | 0.13 | 12 | 1015.3 |
| 20260507140548 | 58 | 355 | 4.0 | 11.0 | 0.00 | 0.00 | 0.13 | 16 | 1015.2 |
| 20260507140042 | 58 | 288 | 10.0 | 15.0 | 0.00 | 0.00 | 0.13 | 14 | 1015.1 |
| 20260507135636 | 58 | 288 | 9.0 | 9.0 | 0.00 | 0.00 | 0.13 | 15 | 1015.2 |
| 20260507135633 | 58 | 297 | 5.0 | 11.0 | 0.00 | 0.00 | 0.13 | 16 | 1015.2 |
| 20260507135631 | 58 | 315 | 13.0 | 15.0 | 0.00 | 0.00 | 0.13 | 17 | 1015.3 |
| 20260507135537 | 58 | 288 | 9.0 | 9.0 | 0.00 | 0.00 | 0.13 | 15 | 1015.2 |
| 20260507135032 | 58 | 297 | 5.0 | 11.0 | 0.00 | 0.00 | 0.13 | 16 | 1015.2 |
| 20260507134527 | 58 | 315 | 13.0 | 15.0 | 0.00 | 0.00 | 0.13 | 17 | 1015.3 |
| 20260507134022 | 58 | 274 | 15.0 | 17.0 | 0.00 | 0.00 | 0.13 | 17 | 1015.2 |
| 20260507133516 | 58 | 265 | 7.0 | 13.0 | 0.00 | 0.00 | 0.13 | 17 | 1015.2 |
| 20260507133011 | 58 | 292 | 11.0 | 20.0 | 0.00 | 0.00 | 0.13 | 16 | 1015.2 |
| 20260507132506 | 58 | 274 | 8.0 | 14.0 | 0.00 | 0.00 | 0.13 | 14 | 1015.2 |
| 20260507132001 | 58 | 310 | 10.0 | 12.0 | 0.00 | 0.00 | 0.13 | 16 | 1015.2 |
| 20260507131456 | 58 | 256 | 5.0 | 15.0 | 0.00 | 0.00 | 0.13 | 13 | 1015.0 |
| 20260507130950 | 58 | 279 | 3.0 | 9.0 | 0.00 | 0.00 | 0.13 | 15 | 1015.1 |
| 20260507130445 | 58 | 306 | 5.0 | 11.0 | 0.00 | 0.00 | 0.13 | 15 | 1015.1 |
| 20260507125940 | 58 | 270 | 6.0 | 15.0 | 0.00 | 0.00 | 0.13 | 15 | 1015.2 |
| 20260507125435 | 58 | 297 | 5.0 | 16.0 | 0.00 | 0.00 | 0.13 | 16 | 1015.2 |
| 20260507124930 | 58 | 342 | 11.0 | 11.0 | 0.00 | 0.00 | 0.13 | 19 | 1015.0 |
| 20260507124424 | 58 | 306 | 3.0 | 11.0 | 0.00 | 0.00 | 0.13 | 17 | 1015.1 |
| 20260507123919 | 58 | 315 | 11.0 | 16.0 | 0.00 | 0.00 | 0.13 | 18 | 1015.0 |
| 20260507123414 | 57 | 279 | 4.0 | 13.0 | 0.00 | 0.00 | 0.13 | 20 | 1015.0 |
| 20260507122909 | 57 | 279 | 11.0 | 14.0 | 0.00 | 0.00 | 0.13 | 20 | 1015.0 |
| 20260507122404 | 57 | 310 | 5.0 | 10.0 | 0.00 | 0.00 | 0.13 | 20 | 1015.0 |
| 20260507121858 | 57 | 315 | 4.0 | 13.0 | 0.00 | 0.00 | 0.13 | 22 | 1015.0 |
| 20260507121353 | 57 | 146 | 6.0 | 11.0 | 0.00 | 0.00 | 0.13 | 24 | 1015.0 |
| 20260507120848 | 57 | 252 | 6.0 | 12.0 | 0.00 | 0.00 | 0.11 | 25 | 1014.9 |
| 20260507120343 | 57 | 292 | 12.0 | 12.0 | 0.00 | 0.00 | 0.11 | 24 | 1014.8 |
| 20260507115838 | 57 | 306 | 6.0 | 10.0 | 0.00 | 0.00 | 0.11 | 24 | 1014.9 |
| 20260507115332 | 56 | 320 | 7.0 | 11.0 | 0.00 | 0.00 | 0.11 | 27 | 1014.9 |
| 20260507114827 | 56 | 283 | 5.0 | 13.0 | 0.00 | 0.00 | 0.11 | 25 | 1014.8 |
| 20260507114322 | 56 | 297 | 12.0 | 14.0 | 0.00 | 0.00 | 0.11 | 29 | 1014.9 |
| 20260507113817 | 56 | 288 | 15.0 | 15.0 | 0.00 | 0.00 | 0.11 | 28 | 1014.9 |
| 20260507113312 | 56 | 320 | 11.0 | 11.0 | 0.00 | 0.00 | 0.11 | 28 | 1015.0 |
| 20260507112806 | 56 | 18 | 4.0 | 12.0 | 0.00 | 0.00 | 0.11 | 29 | 1015.0 |
| 20260507112301 | 56 | 297 | 6.0 | 17.0 | 0.00 | 0.00 | 0.11 | 26 | 1014.9 |
| 20260507111756 | 56 | 306 | 8.0 | 15.0 | 0.00 | 0.00 | 0.11 | 27 | 1015.0 |
| 20260507111251 | 56 | 261 | 4.0 | 17.0 | 0.00 | 0.00 | 0.11 | 32 | 1015.1 |
| 20260507110746 | 56 | 261 | 12.0 | 14.0 | 0.00 | 0.00 | 0.11 | 31 | 1015.0 |
| 20260507110240 | 57 | 315 | 5.0 | 17.0 | 0.00 | 0.00 | 0.11 | 35 | 1015.0 |
| 20260507105735 | 57 | 0 | 1.0 | 20.0 | 0.00 | 0.00 | 0.11 | 29 | 1014.9 |
| 20260507105230 | 57 | 270 | 8.0 | 9.0 | 0.00 | 0.00 | 0.11 | 27 | 1014.8 |
| 20260507104725 | 56 | 310 | 3.0 | 8.0 | 0.00 | 0.00 | 0.11 | 30 | 1014.8 |
| 20260507104220 | 55 | 270 | 9.0 | 14.0 | 0.00 | 0.00 | 0.11 | 30 | 1014.8 |
| 20260507103714 | 55 | 261 | 14.0 | 17.0 | 0.00 | 0.00 | 0.11 | 29 | 1014.7 |
| 20260507103209 | 55 | 265 | 6.0 | 14.0 | 0.00 | 0.00 | 0.11 | 28 | 1014.7 |
| 20260507102704 | 55 | 261 | 13.0 | 18.0 | 0.00 | 0.00 | 0.11 | 27 | 1014.7 |
| 20260507102159 | 56 | 270 | 15.0 | 18.0 | 0.00 | 0.00 | 0.11 | 25 | 1014.6 |
| 20260507101654 | 56 | 247 | 6.0 | 14.0 | 0.00 | 0.00 | 0.11 | 25 | 1014.6 |
| 20260507101148 | 57 | 238 | 13.0 | 16.0 | 0.00 | 0.00 | 0.11 | 27 | 1014.5 |
| 20260507100643 | 57 | 351 | 4.0 | 13.0 | 0.00 | 0.00 | 0.11 | 27 | 1014.6 |
| 20260507100138 | 57 | 252 | 10.0 | 11.0 | 0.00 | 0.00 | 0.11 | 30 | 1014.4 |
| 20260507095633 | 57 | 256 | 9.0 | 10.0 | 0.00 | 0.00 | 0.11 | 34 | 1014.5 |
| 20260507095128 | 56 | 256 | 7.0 | 9.0 | 0.00 | 0.00 | 0.11 | 31 | 1014.5 |
| 20260507094622 | 56 | 274 | 8.0 | 8.0 | 0.00 | 0.00 | 0.11 | 34 | 1014.5 |
| 20260507094117 | 56 | 297 | 6.0 | 14.0 | 0.00 | 0.00 | 0.11 | 34 | 1014.5 |
| 20260507093612 | 56 | 270 | 3.0 | 11.0 | 0.00 | 0.00 | 0.11 | 37 | 1014.5 |
| 20260507093107 | 56 | 270 | 4.0 | 5.0 | 0.00 | 0.00 | 0.11 | 35 | 1014.3 |
| 20260507092602 | 56 | 243 | 13.0 | 16.0 | 0.00 | 0.00 | 0.11 | 36 | 1014.3 |
| 20260507092056 | 56 | 292 | 5.0 | 13.0 | 0.00 | 0.00 | 0.11 | 35 | 1014.3 |
| 20260507091551 | 55 | 279 | 4.0 | 12.0 | 0.00 | 0.00 | 0.11 | 36 | 1014.3 |
| 20260507091046 | 55 | 252 | 6.0 | 17.0 | 0.00 | 0.00 | 0.11 | 36 | 1014.2 |
| 20260507090541 | 55 | 270 | 11.0 | 13.0 | 0.00 | 0.00 | 0.11 | 35 | 1014.1 |
| 20260507090036 | 55 | 292 | 4.0 | 17.0 | 0.00 | 0.00 | 0.11 | 34 | 1014.2 |
| 20260507085530 | 56 | 288 | 6.0 | 17.0 | 0.00 | 0.00 | 0.11 | 32 | 1014.2 |
| 20260507085025 | 58 | 274 | 11.0 | 11.0 | 0.00 | 0.00 | 0.11 | 31 | 1014.2 |
| 20260507084520 | 58 | 270 | 8.0 | 9.0 | 0.00 | 0.00 | 0.11 | 34 | 1014.1 |
| 20260507084015 | 57 | 27 | 0.0 | 7.0 | 0.00 | 0.00 | 0.11 | 32 | 1014.2 |
| 20260507083510 | 56 | 275 | 4.0 | 14.0 | 0.00 | 0.00 | 0.11 | 34 | 1014.2 |
| 20260507083005 | 56 | 297 | 4.0 | 9.0 | 0.00 | 0.00 | 0.11 | 33 | 1014.1 |